| time (UTC) | temp F | wind direction | speed MPH | gust MPH | rain 1hr in | rain 24hr in | rain mn in | humidity % | barometer mb |
| 20260906134036 | 76 | 45 | 2.0 | 3.0 | 0.00 | 0.00 | 0.00 | 58 | 1024.3 |
| 20260906133016 | 75 | 23 | 1.0 | 3.0 | 0.00 | 0.00 | 0.00 | 58 | 1024.3 |
| 20260906132016 | 75 | 0.0 | 2.0 | 0.00 | 0.00 | 0.00 | 58 | 1024.1 | |
| 20260906131015 | 75 | 45 | 2.0 | 3.0 | 0.00 | 0.00 | 0.00 | 58 | 1024.1 |
| 20260906130016 | 75 | 0.0 | 0.0 | 0.00 | 0.00 | 0.00 | 58 | 1024.1 | |
| 20260906125016 | 75 | 45 | 1.0 | 3.0 | 0.00 | 0.00 | 0.00 | 59 | 1023.9 |
| 20260906124016 | 75 | 0 | 1.0 | 2.0 | 0.00 | 0.00 | 0.00 | 60 | 1024.2 |
| 20260906123016 | 75 | 23 | 3.0 | 4.0 | 0.00 | 0.00 | 0.00 | 60 | 1024.0 |
| 20260906122016 | 75 | 45 | 1.0 | 4.0 | 0.00 | 0.00 | 0.00 | 61 | 1024.2 |
| 20260906121015 | 75 | 0.0 | 0.0 | 0.00 | 0.00 | 0.00 | 61 | 1024.1 | |
| 20260906120016 | 76 | 0.0 | 0.0 | 0.00 | 0.00 | 0.00 | 61 | 1024.2 | |
| 20260906115016 | 76 | 0.0 | 0.0 | 0.00 | 0.00 | 0.00 | 61 | 1024.1 | |
| 20260906114015 | 76 | 0.0 | 0.0 | 0.00 | 0.00 | 0.00 | 60 | 1023.9 | |
| 20260906113015 | 76 | 0.0 | 0.0 | 0.00 | 0.00 | 0.00 | 59 | 1023.8 | |
| 20260906112017 | 77 | 0.0 | 0.0 | 0.00 | 0.00 | 0.00 | 58 | 1023.7 | |
| 20260906111016 | 77 | 0.0 | 0.0 | 0.00 | 0.00 | 0.00 | 59 | 1023.7 | |
| 20260906110016 | 76 | 0.0 | 0.0 | 0.00 | 0.00 | 0.00 | 59 | 1023.7 | |
| 20260906104017 | 76 | 0.0 | 0.0 | 0.00 | 0.00 | 0.00 | 59 | 1023.8 | |
| 20260906103037 | 76 | 0.0 | 0.0 | 0.00 | 0.00 | 0.00 | 59 | 1023.8 | |
| 20260906102017 | 76 | 0.0 | 0.0 | 0.00 | 0.00 | 0.00 | 59 | 1023.8 | |
| 20260906101017 | 76 | 0.0 | 0.0 | 0.00 | 0.00 | 0.00 | 59 | 1023.7 | |
| 20260906100017 | 76 | 0.0 | 0.0 | 0.00 | 0.00 | 0.00 | 58 | 1023.7 | |
| 20260906095017 | 76 | 0.0 | 0.0 | 0.00 | 0.00 | 0.00 | 57 | 1023.6 | |
| 20260906094016 | 77 | 0.0 | 0.0 | 0.00 | 0.00 | 0.00 | 56 | 1023.6 | |
| 20260906093016 | 77 | 0.0 | 0.0 | 0.00 | 0.00 | 0.00 | 55 | 1023.7 | |
| 20260906092016 | 78 | 0.0 | 0.0 | 0.00 | 0.00 | 0.00 | 54 | 1023.7 | |
| 20260906090016 | 79 | 203 | 1.0 | 3.0 | 0.00 | 0.00 | 0.00 | 52 | 1023.7 |
| 20260906085016 | 80 | 0.0 | 1.0 | 0.00 | 0.00 | 0.00 | 50 | 1023.9 | |
| 20260906084017 | 81 | 0.0 | 2.0 | 0.00 | 0.00 | 0.00 | 49 | 1023.9 | |
| 20260906083016 | 82 | 203 | 4.0 | 7.0 | 0.00 | 0.00 | 0.00 | 47 | 1023.9 |
| 20260906082016 | 82 | 23 | 3.0 | 5.0 | 0.00 | 0.00 | 0.00 | 46 | 1023.8 |
| 20260906081016 | 83 | 45 | 4.0 | 6.0 | 0.00 | 0.00 | 0.00 | 46 | 1024.1 |
| 20260906080017 | 82 | 45 | 4.0 | 7.0 | 0.00 | 0.00 | 0.00 | 46 | 1024.3 |
| 20260906075017 | 82 | 68 | 6.0 | 10.0 | 0.00 | 0.00 | 0.00 | 47 | 1024.5 |
| 20260906074016 | 81 | 45 | 3.0 | 7.0 | 0.00 | 0.00 | 0.00 | 48 | 1024.2 |
| 20260906073017 | 82 | 0.0 | 0.0 | 0.00 | 0.00 | 0.00 | 47 | 1024.4 | |
| 20260906072018 | 83 | 163 | 2.0 | 0.0 | 0.00 | 0.00 | 0.00 | 46 | 1024.4 |
| 20260906071516 | 83 | 180 | 1.0 | 3.0 | 0.00 | 0.00 | 0.00 | 46 | 1024.4 |
| 20260906070517 | 83 | 45 | 3.0 | 7.0 | 0.00 | 0.00 | 0.00 | 46 | 1024.4 |
| 20260906065516 | 82 | 45 | 4.0 | 8.0 | 0.00 | 0.00 | 0.00 | 47 | 1024.3 |
| 20260906064516 | 82 | 23 | 2.0 | 4.0 | 0.00 | 0.00 | 0.00 | 47 | 1024.2 |
| 20260906063516 | 82 | 0.0 | 0.0 | 0.00 | 0.00 | 0.00 | 47 | 1024.2 | |
| 20260906062517 | 83 | 135 | 2.0 | 4.0 | 0.00 | 0.00 | 0.00 | 45 | 1024.3 |
| 20260906061516 | 84 | 23 | 3.0 | 5.0 | 0.00 | 0.00 | 0.00 | 44 | 1024.3 |
| 20260906060516 | 84 | 45 | 4.0 | 7.0 | 0.00 | 0.00 | 0.00 | 44 | 1024.4 |
| 20260906055516 | 85 | 23 | 2.0 | 4.0 | 0.00 | 0.00 | 0.00 | 43 | 1024.4 |
| 20260906054516 | 85 | 23 | 3.0 | 3.0 | 0.00 | 0.00 | 0.00 | 43 | 1024.3 |
| 20260906053516 | 85 | 45 | 4.0 | 6.0 | 0.00 | 0.00 | 0.00 | 42 | 1024.3 |
| 20260906052516 | 86 | 45 | 4.0 | 5.0 | 0.00 | 0.00 | 0.00 | 42 | 1024.4 |
| 20260906051516 | 86 | 45 | 4.0 | 7.0 | 0.00 | 0.00 | 0.00 | 41 | 1024.4 |
| 20260906050516 | 86 | 23 | 3.0 | 5.0 | 0.00 | 0.00 | 0.00 | 41 | 1024.4 |
| 20260906045516 | 87 | 23 | 4.0 | 5.0 | 0.00 | 0.00 | 0.00 | 40 | 1024.4 |
| 20260906044536 | 87 | 45 | 3.0 | 7.0 | 0.00 | 0.00 | 0.00 | 40 | 1024.4 |
| 20260906043516 | 87 | 68 | 6.0 | 10.0 | 0.00 | 0.00 | 0.00 | 40 | 1024.5 |
| 20260906042516 | 87 | 68 | 5.0 | 9.0 | 0.00 | 0.00 | 0.00 | 40 | 1024.3 |
| 20260906041516 | 87 | 90 | 5.0 | 8.0 | 0.00 | 0.00 | 0.00 | 40 | 1024.3 |
| 20260906040516 | 87 | 68 | 4.0 | 8.0 | 0.00 | 0.00 | 0.00 | 40 | 1024.3 |
| 20260906035516 | 87 | 90 | 4.0 | 7.0 | 0.00 | 0.00 | 0.00 | 40 | 1024.1 |
| 20260906034516 | 86 | 90 | 5.0 | 8.0 | 0.00 | 0.00 | 0.00 | 41 | 1023.8 |
| 20260906033516 | 86 | 90 | 4.0 | 7.0 | 0.00 | 0.00 | 0.00 | 41 | 1023.6 |
| 20260906032536 | 87 | 68 | 1.0 | 2.0 | 0.00 | 0.00 | 0.00 | 40 | 1023.3 |
| 20260906031517 | 87 | 0.0 | 0.0 | 0.00 | 0.00 | 0.00 | 39 | 1023.2 | |
| 20260906030516 | 88 | 158 | 1.0 | 2.0 | 0.00 | 0.00 | 0.00 | 38 | 1023.2 |
| 20260906025516 | 89 | 203 | 2.0 | 4.0 | 0.00 | 0.00 | 0.00 | 37 | 1022.7 |
| 20260906024516 | 89 | 0.0 | 3.0 | 0.00 | 0.00 | 0.00 | 37 | 1022.5 | |
| 20260906023537 | 90 | 315 | 1.0 | 2.0 | 0.00 | 0.00 | 0.00 | 36 | 1022.7 |
| 20260906022516 | 90 | 338 | 4.0 | 8.0 | 0.00 | 0.00 | 0.00 | 36 | 1022.2 |
| 20260906021536 | 91 | 315 | 4.0 | 9.0 | 0.00 | 0.00 | 0.00 | 36 | 1022.1 |
| 20260906020516 | 91 | 338 | 5.0 | 9.0 | 0.00 | 0.00 | 0.00 | 36 | 1022.2 |
| 20260906015516 | 91 | 338 | 4.0 | 7.0 | 0.00 | 0.00 | 0.00 | 35 | 1022.1 |
| 20260906014516 | 92 | 315 | 5.0 | 10.0 | 0.00 | 0.00 | 0.00 | 35 | 1022.2 |
| 20260906013516 | 92 | 315 | 7.0 | 12.0 | 0.00 | 0.00 | 0.00 | 35 | 1022.1 |
| 20260906012516 | 93 | 315 | 7.0 | 12.0 | 0.00 | 0.00 | 0.00 | 34 | 1022.0 |
| 20260906011516 | 94 | 315 | 5.0 | 9.0 | 0.00 | 0.00 | 0.00 | 33 | 1022.0 |
| 20260906010516 | 94 | 315 | 5.0 | 8.0 | 0.00 | 0.00 | 0.00 | 33 | 1022.1 |
| 20260906005516 | 94 | 270 | 7.0 | 13.0 | 0.00 | 0.00 | 0.00 | 33 | 1022.0 |
| 20260906004516 | 94 | 248 | 6.0 | 10.0 | 0.00 | 0.00 | 0.00 | 33 | 1022.0 |
| 20260906003516 | 94 | 248 | 9.0 | 14.0 | 0.00 | 0.00 | 0.00 | 33 | 1022.0 |
| 20260906002516 | 95 | 270 | 8.0 | 13.0 | 0.00 | 0.00 | 0.00 | 32 | 1022.2 |
| 20260906001516 | 95 | 248 | 10.0 | 16.0 | 0.00 | 0.00 | 0.00 | 32 | 1022.2 |
| 20260906000516 | 96 | 270 | 8.0 | 12.0 | 0.00 | 0.00 | 0.00 | 31 | 1022.3 |
| 20260905235516 | 96 | 248 | 10.0 | 17.0 | 0.00 | 0.00 | 0.00 | 31 | 1022.0 |
| 20260905234516 | 96 | 248 | 10.0 | 15.0 | 0.00 | 0.00 | 0.00 | 31 | 1022.1 |
| 20260905233516 | 96 | 270 | 9.0 | 15.0 | 0.00 | 0.00 | 0.00 | 31 | 1022.1 |
| 20260905232516 | 97 | 248 | 9.0 | 21.0 | 0.00 | 0.00 | 0.00 | 30 | 1022.3 |
| 20260905231516 | 97 | 248 | 9.0 | 15.0 | 0.00 | 0.00 | 0.00 | 30 | 1022.4 |
| 20260905230516 | 97 | 248 | 9.0 | 16.0 | 0.00 | 0.00 | 0.00 | 31 | 1022.4 |
| 20260905225516 | 97 | 270 | 8.0 | 14.0 | 0.00 | 0.00 | 0.00 | 30 | 1022.5 |
| 20260905224536 | 97 | 270 | 7.0 | 13.0 | 0.00 | 0.00 | 0.00 | 31 | 1022.5 |
| 20260905223516 | 97 | 270 | 7.0 | 12.0 | 0.00 | 0.00 | 0.00 | 30 | 1022.6 |
| 20260905222516 | 97 | 270 | 7.0 | 11.0 | 0.00 | 0.00 | 0.00 | 31 | 1022.9 |
| 20260905221516 | 97 | 270 | 7.0 | 12.0 | 0.00 | 0.00 | 0.00 | 31 | 1023.1 |
| 20260905220516 | 97 | 248 | 9.0 | 14.0 | 0.00 | 0.00 | 0.00 | 31 | 1023.1 |
| 20260905215516 | 98 | 180 | 7.0 | 15.0 | 0.00 | 0.00 | 0.00 | 30 | 1023.4 |
| 20260905214516 | 97 | 225 | 6.0 | 12.0 | 0.00 | 0.00 | 0.00 | 30 | 1023.3 |
| 20260905213516 | 97 | 248 | 8.0 | 16.0 | 0.00 | 0.00 | 0.00 | 30 | 1023.5 |
| 20260905212516 | 97 | 315 | 5.0 | 10.0 | 0.00 | 0.00 | 0.00 | 30 | 1023.6 |
| 20260905211516 | 97 | 225 | 8.0 | 14.0 | 0.00 | 0.00 | 0.00 | 30 | 1023.8 |
| 20260905210516 | 97 | 248 | 7.0 | 13.0 | 0.00 | 0.00 | 0.00 | 31 | 1023.9 |
| 20260905205516 | 96 | 225 | 5.0 | 11.0 | 0.00 | 0.00 | 0.00 | 31 | 1024.1 |
| 20260905204516 | 95 | 248 | 6.0 | 12.0 | 0.00 | 0.00 | 0.00 | 32 | 1024.2 |
| 20260905203516 | 96 | 270 | 5.0 | 11.0 | 0.00 | 0.00 | 0.00 | 32 | 1024.5 |
| 20260905202556 | 96 | 225 | 3.0 | 8.0 | 0.00 | 0.00 | 0.00 | 32 | 1024.7 |
| 20260905201516 | 96 | 270 | 9.0 | 14.0 | 0.00 | 0.00 | 0.00 | 32 | 1024.8 |
| 20260905200516 | 96 | 293 | 5.0 | 11.0 | 0.00 | 0.00 | 0.00 | 33 | 1025.1 |
| 20260905195516 | 96 | 248 | 6.0 | 11.0 | 0.00 | 0.00 | 0.00 | 33 | 1025.2 |
| 20260905194516 | 96 | 248 | 5.0 | 8.0 | 0.00 | 0.00 | 0.00 | 33 | 1025.3 |
| 20260905193516 | 95 | 248 | 3.0 | 7.0 | 0.00 | 0.00 | 0.00 | 33 | 1025.5 |
| 20260905192536 | 95 | 225 | 5.0 | 9.0 | 0.00 | 0.00 | 0.00 | 35 | 1025.7 |
| 20260905191516 | 94 | 270 | 3.0 | 6.0 | 0.00 | 0.00 | 0.00 | 35 | 1025.8 |
| 20260905190516 | 94 | 225 | 4.0 | 10.0 | 0.00 | 0.00 | 0.00 | 35 | 1025.9 |
| 20260905185516 | 94 | 225 | 6.0 | 10.0 | 0.00 | 0.00 | 0.00 | 35 | 1026.2 |
| 20260905184556 | 94 | 293 | 5.0 | 8.0 | 0.00 | 0.00 | 0.00 | 35 | 1026.3 |
| 20260905183516 | 93 | 203 | 3.0 | 8.0 | 0.00 | 0.00 | 0.00 | 36 | 1026.5 |
| 20260905182516 | 92 | 270 | 4.0 | 10.0 | 0.00 | 0.00 | 0.00 | 37 | 1026.4 |
| 20260905181516 | 92 | 270 | 5.0 | 11.0 | 0.00 | 0.00 | 0.00 | 37 | 1026.4 |
| 20260905180536 | 91 | 270 | 1.0 | 4.0 | 0.00 | 0.00 | 0.00 | 37 | 1026.5 |
| 20260905175536 | 91 | 293 | 4.0 | 7.0 | 0.00 | 0.00 | 0.00 | 39 | 1026.7 |
| 20260905174516 | 91 | 158 | 3.0 | 7.0 | 0.00 | 0.00 | 0.00 | 39 | 1026.7 |
| 20260905173516 | 90 | 225 | 3.0 | 8.0 | 0.00 | 0.00 | 0.00 | 41 | 1026.7 |
| 20260905172516 | 90 | 248 | 3.0 | 7.0 | 0.00 | 0.00 | 0.00 | 41 | 1026.9 |
| 20260905171536 | 90 | 225 | 4.0 | 8.0 | 0.00 | 0.00 | 0.00 | 42 | 1026.9 |
| 20260905170516 | 89 | 270 | 3.0 | 5.0 | 0.00 | 0.00 | 0.00 | 43 | 1026.9 |
| 20260905165516 | 89 | 248 | 3.0 | 7.0 | 0.00 | 0.00 | 0.00 | 45 | 1027.0 |
| 20260905164516 | 89 | 270 | 2.0 | 4.0 | 0.00 | 0.00 | 0.00 | 45 | 1027.4 |
| 20260905163516 | 88 | 203 | 2.0 | 4.0 | 0.00 | 0.00 | 0.00 | 47 | 1027.2 |
| 20260905162516 | 88 | 225 | 1.0 | 5.0 | 0.00 | 0.00 | 0.00 | 47 | 1027.2 |
| 20260905161516 | 87 | 315 | 1.0 | 4.0 | 0.00 | 0.00 | 0.00 | 47 | 1027.1 |
| 20260905160536 | 86 | 135 | 1.0 | 2.0 | 0.00 | 0.00 | 0.00 | 49 | 1027.1 |
| 20260905155515 | 85 | 113 | 1.0 | 2.0 | 0.00 | 0.00 | 0.00 | 51 | 1026.9 |
| 20260905154516 | 84 | 225 | 2.0 | 4.0 | 0.00 | 0.00 | 0.00 | 53 | 1027.0 |
| 20260905153515 | 83 | 203 | 1.0 | 4.0 | 0.00 | 0.00 | 0.00 | 56 | 1026.8 |
| 20260905152516 | 82 | 248 | 1.0 | 4.0 | 0.00 | 0.00 | 0.00 | 57 | 1026.8 |
| 20260905151515 | 81 | 158 | 1.0 | 3.0 | 0.00 | 0.00 | 0.00 | 60 | 1026.8 |
| 20260905150516 | 80 | 248 | 2.0 | 3.0 | 0.00 | 0.00 | 0.00 | 61 | 1026.8 |
| 20260905145536 | 79 | 248 | 1.0 | 2.0 | 0.00 | 0.00 | 0.00 | 63 | 1026.6 |
| 20260905144515 | 77 | 315 | 1.0 | 2.0 | 0.00 | 0.00 | 0.00 | 67 | 1026.9 |
| 20260905143516 | 76 | 0.0 | 0.0 | 0.00 | 0.00 | 0.00 | 70 | 1026.7 | |
| 20260905142516 | 75 | 0.0 | 0.0 | 0.00 | 0.00 | 0.00 | 73 | 1026.6 | |
| 20260905141516 | 74 | 0.0 | 0.0 | 0.00 | 0.00 | 0.00 | 74 | 1026.6 | |
| 20260905140516 | 73 | 0.0 | 0.0 | 0.00 | 0.00 | 0.00 | 75 | 1026.2 | |
| 20260905135515 | 72 | 0.0 | 0.0 | 0.00 | 0.00 | 0.00 | 75 | 1026.1 |